Clemson, SC

6:50 PM EDT on May 22, 2018 (GMT -0400)
Oconee County Regional

Weather History for KCEU - February, 2014

Change the Weather History Date:

Sunday, February 9, 2014

  Actual Average Record
Temperature  
Mean Temperature 50 °F -  
Max Temperature 60 °F 53 °F 72 °F (1965)
Min Temperature 39 °F 26 °F 10 °F (1933)
Degree Days  
Heating Degree Days 16    
Moisture  
Dew Point 33 °F    
Average Humidity 57    
Maximum Humidity 79    
Minimum Humidity 38    
Precipitation  
Precipitation 0.00 in - - ()
Sea Level Pressure  
Sea Level Pressure 30.08 in    
Wind  
Wind Speed 4 mph (WSW)    
Max Wind Speed 12 mph    
Max Gust Speed 23 mph    
Visibility 10 miles    
Events      
Averages and records for this station are not official NWS values.
T = Trace of Precipitation, MM = Missing Value Source: NWS Daily Summary

Daily Weather History Graph

Daily Weather History Graph

Search for Another Location

Airport or City:

Astronomy

Feb. 09, 2014 Rise Set
Actual Time 7:23 AM EST 6:08 PM EST
Civil Twilight 6:56 AM EST 6:35 PM EST
Nautical Twilight 6:27 AM EST 7:04 PM EST
Astronomical Twilight 5:57 AM EST 7:34 PM EST
Moon 1:52 PM EST (2/9) 3:23 AM EST (2/9)
Length of Visible Light 11h 38m
Length of Day
10h 45m
Waxing Gibbous, 77% of the Moon is Illuminated
Feb 9
Waxing Gibbous
Feb 14
Full
Feb 22
Last Quarter
Mar 1
New
Mar 8
First Quarter

Hourly Weather History & Observations

Time (EST) Temp. Windchill Dew Point Humidity Pressure Visibility Wind Dir Wind Speed Gust Speed Precip Events Conditions
12:54 AM 43.0 °F 41.3 °F 32.0 °F 65% 30.13 in 10.0 mi SW 3.5 mph - N/A   Clear
1:54 AM 41.0 °F - 32.0 °F 70% 30.11 in 10.0 mi Calm Calm - N/A   Clear
2:54 AM 39.9 °F - 32.0 °F 73% 30.09 in 10.0 mi Calm Calm - N/A   Clear
3:54 AM 39.0 °F - 32.0 °F 76% 30.09 in 10.0 mi Calm Calm - N/A   Overcast
4:54 AM 39.9 °F - 33.1 °F 77% 30.09 in 10.0 mi Calm Calm - N/A   Mostly Cloudy
5:54 AM 39.0 °F 36.8 °F 33.1 °F 79% 30.09 in 10.0 mi South 3.5 mph - N/A   Mostly Cloudy
6:54 AM 42.1 °F 40.2 °F 33.1 °F 70% 30.10 in 10.0 mi SW 3.5 mph - N/A   Overcast
7:54 AM 41.0 °F - 33.1 °F 73% 30.12 in 10.0 mi Calm Calm - N/A   Partly Cloudy
8:54 AM 44.1 °F 40.8 °F 33.1 °F 65% 30.12 in 10.0 mi SW 5.8 mph - N/A   Clear
9:54 AM 50.0 °F - 34.0 °F 54% 30.10 in 10.0 mi SW 5.8 mph - N/A   Clear
10:54 AM 54.0 °F - 34.0 °F 47% 30.12 in 10.0 mi WSW 11.5 mph 19.6 mph N/A   Clear
11:54 AM 55.9 °F - 34.0 °F 44% 30.11 in 10.0 mi WSW 10.4 mph 20.7 mph N/A   Mostly Cloudy
12:54 PM 57.9 °F - 34.0 °F 41% 30.07 in 10.0 mi West 11.5 mph 19.6 mph N/A   Clear
1:54 PM 59.0 °F - 33.1 °F 38% 30.03 in 10.0 mi West 11.5 mph 18.4 mph N/A   Clear
2:54 PM 60.1 °F - 34.0 °F 38% 29.99 in 10.0 mi WSW 9.2 mph 23.0 mph N/A   Clear
3:54 PM 60.1 °F - 34.0 °F 38% 29.99 in 10.0 mi West 9.2 mph - N/A   Clear
4:54 PM 57.9 °F - 35.1 °F 42% 30.02 in 10.0 mi WSW 5.8 mph - N/A   Partly Cloudy
5:54 PM 55.0 °F - 35.1 °F 47% 30.04 in 10.0 mi WNW 8.1 mph - N/A   Clear
6:54 PM 53.1 °F - 34.0 °F 48% 30.07 in 10.0 mi WNW 8.1 mph - N/A   Clear
7:54 PM 52.0 °F - 33.1 °F 49% 30.06 in 10.0 mi WNW 8.1 mph - N/A   Clear
8:54 PM 50.0 °F - 33.1 °F 52% 30.07 in 10.0 mi WNW 5.8 mph - N/A   Clear
9:54 PM 48.0 °F - 33.1 °F 56% 30.09 in 10.0 mi NW 4.6 mph - N/A   Clear
10:54 PM 46.9 °F - 32.0 °F 56% 30.07 in 10.0 mi West 4.6 mph - N/A   Clear
11:54 PM 45.0 °F 42.6 °F 32.0 °F 60% 30.05 in 10.0 mi West 4.6 mph - N/A   Clear